[[[{"header":{"parameterUnit":"kt","parameterCategory":2,"dx":1,"dy":1,"la1":30.253999710083008,"la2":30.299108505249023,"lo1":-89.0895004272461,"lo2":-89.04439544677734,"nx":28,"ny":28,"refTime":"2022-10-20T21:00:00:Z","depth":0,"parameterNumber":1,"parameterNumberName":"U-component_of_WINDS"},"data":[3.9086,3.9176,3.9126,3.9205,3.9174,3.922,3.922,3.9216,3.92,3.925,3.927,3.923,3.9196,3.9208,3.9228,3.921,3.9221,3.9287,3.9254,3.9,3.8961,3.8925,3.8898,3.9291,3.9292,3.9523,3.9525,3.9527,3.8899,3.8869,3.8897,3.8891,3.8914,3.8819,3.8807,3.8832,3.8877,3.8859,3.8877,3.8917,3.8944,3.8886,3.8903,3.8944,3.89,3.8951,3.8946,3.8941,3.8669,3.8641,3.8986,3.8986,3.8986,3.8986,3.8986,3.8986,3.8544,3.8601,3.8567,3.8597,3.8581,3.8578,3.8623,3.8572,3.86,3.8612,3.8549,3.8599,3.8572,3.857,3.8558,3.8595,3.8529,3.857,3.858,3.8591,3.8608,3.8275,3.8596,3.8595,3.8594,3.8593,3.8592,0,3.8268,3.8222,3.8247,3.8256,3.8275,3.8279,3.8274,3.8301,3.8189,3.8218,3.8254,3.8267,3.8294,3.8323,3.8329,3.8307,3.8211,3.8198,3.8225,3.8254,3.8279,3.8263,3.7817,3.8189,3.8185,3.8182,3.818,3.8179,3.7903,3.7978,3.7919,3.7943,3.7927,3.7969,3.7983,3.7878,3.7899,3.7878,3.7934,3.7962,3.7979,3.8049,3.799,3.8011,3.7964,3.8111,3.7967,3.7991,3.7962,3.7957,3.7962,3.814,3.8145,3.8149,3.8152,0,3.7702,3.762,3.7719,3.7654,3.764,3.7723,3.7668,3.7722,3.7667,3.7734,3.7743,3.7658,3.7698,3.7614,3.7644,3.7599,3.7733,3.7689,3.7739,3.7725,3.7845,3.7834,3.8257,3.8305,3.79,3.7904,3.7907,0,3.7357,3.746,3.733,3.7392,3.7501,3.7392,3.7504,3.7467,3.7442,3.7494,3.7372,3.7423,3.7309,3.7348,3.7283,3.7378,3.7385,3.7355,3.7336,3.7364,3.7368,3.7372,3.7352,3.7294,3.7292,3.729,3.7289,0,3.7048,3.7101,3.7201,3.7199,3.7142,3.7192,3.7171,3.7142,3.7159,3.7167,3.7175,3.7194,3.7204,3.722,3.7135,3.704,3.7251,3.7103,3.722,3.7222,3.7269,3.7267,3.7664,3.7286,3.7285,3.7285,3.7284,0,3.6756,3.6765,3.6924,3.6871,3.689,3.6958,3.6966,3.7005,3.6984,3.6946,3.6952,3.686,3.6939,3.6797,3.6903,3.6802,3.6819,3.6798,3.6805,3.6805,3.6647,3.6879,3.7267,3.7303,3.6807,3.6803,3.6799,0,3.6422,3.6562,3.6468,3.6623,3.6675,3.6531,3.6604,3.659,3.6545,3.6583,3.6533,3.6579,3.6456,3.6459,3.6523,3.6474,3.6605,3.6454,3.6509,3.6512,3.6514,3.6872,3.6949,3.7192,3.6747,3.6753,3.6757,0,3.6153,3.6082,3.6117,3.6109,3.6072,3.6117,3.6203,3.6222,3.6252,3.6252,3.6319,3.6384,3.6291,3.6299,3.6227,3.6298,3.6513,3.619,3.6188,3.6248,3.6716,3.6787,3.6829,3.6449,3.6455,3.646,3.6716,0,3.5723,3.5784,3.5874,3.5866,3.5887,3.5982,3.589,3.5924,3.5851,3.5801,3.5901,3.5871,3.5894,3.592,3.5851,3.6041,3.5996,3.5899,3.5753,3.599,3.6071,3.6105,3.5638,3.5633,3.5629,3.5626,0,0,3.5423,3.5507,3.5403,3.5481,3.5492,3.5341,3.5449,3.5443,3.5436,3.5447,3.5365,3.5452,3.5432,3.5563,3.563,3.5641,3.5666,3.5588,3.5878,3.5907,3.5933,3.6022,3.6059,3.5619,3.5617,3.5616,3.5614,0,3.5245,3.5226,3.5334,3.5322,3.5301,3.5242,3.5269,3.5222,3.5195,3.5294,3.5169,3.5219,3.5295,3.5287,3.5293,3.557,3.5472,3.5584,3.5761,3.5841,3.5875,3.5905,3.6,3.6036,3.5605,3.5605,3.5606,0,3.4961,3.4925,3.4969,3.4988,3.4973,3.5033,3.4857,3.4929,3.4972,3.4806,3.4906,3.4878,3.4862,3.5,3.5059,3.4986,3.5301,3.5188,3.5211,3.5215,3.5288,3.5329,3.5366,3.4885,3.4883,3.4881,0,0,3.4821,3.4877,3.4807,3.4943,3.4943,3.4858,3.4882,3.481,3.4798,3.4795,3.4755,3.4749,3.479,3.482,3.4855,3.502,3.5007,3.5103,3.5137,3.5165,3.5185,3.5265,3.5306,3.4873,3.4872,3.4872,0,0,3.4754,3.4676,3.4604,3.4751,3.4743,3.4683,3.4771,3.4681,3.4703,3.4682,3.4567,3.456,3.4688,3.4666,3.4567,3.4801,3.4659,3.4681,3.4811,3.4852,3.4885,3.4887,3.4383,0,0,0,0,0,3.4526,3.4685,3.462,3.4631,3.4657,3.4719,3.4722,3.463,3.4529,3.46,3.4552,3.4448,3.4588,3.4497,3.4511,3.4622,3.4767,3.4786,3.4804,3.5009,3.5053,3.5091,0,0,0,0,0,0,3.4529,3.4543,3.4615,3.4565,3.4569,3.4713,3.4522,3.4501,3.4519,3.4497,3.446,3.4446,3.437,3.4484,3.4498,3.4605,3.4378,3.4775,3.4791,3.4805,3.5024,3.5061,3.5092,0,0,0,0,0,3.4532,3.4543,3.4609,3.4561,3.4566,3.448,3.4515,3.4496,3.4509,3.4436,3.4419,3.4437,3.4376,3.4381,3.4492,3.4601,3.4368,3.4373,3.4785,3.4797,3.4809,3.5042,0,0,0,0,0,0,3.4533,3.4526,3.4607,3.4605,3.4494,3.447,3.4463,3.4493,3.4444,3.4429,3.4407,3.4391,3.4382,3.4384,3.4389,3.4605,3.436,3.4365,3.4369,3.4794,3.4804,3.4813,0,0,0,0,0,0,3.4519,3.4526,3.4606,3.4526,3.4514,3.4462,3.4456,3.4538,3.4446,3.4417,3.4402,3.44,3.4375,3.4388,3.4391,3.4523,3.4353,3.4359,3.4362,3.4365,3.4802,3.481,0,0,0,0,0,0,3.452,3.4525,3.4526,3.4517,3.4506,3.4475,3.4532,3.4565,3.4376,3.4422,3.4357,3.4348,3.4382,3.4383,3.4393,3.4524,3.4523,3.4353,3.4357,3.436,3.4361,0,0,0,0,0,0,0,3.4521,3.4509,3.462,3.451,3.4499,3.4585,3.4585,3.4584,3.4374,3.4367,3.4359,3.4352,3.4323,3.4329,3.4335,3.4526,0,0,3.4353,3.4356,0,0,0,0,0,0,0,0,3.4504,3.4508,3.462,3.462,3.4619,3.4585,3.4585,3.4584,3.4373,3.4367,3.436,3.4355,3.4325,3.4329,3.4334,0,0,0,0,0,0,0,0,0,0,0,0,0,0,0,3.462,3.462,0,3.4585,3.4585,3.4584,3.4372,3.4367,3.4362,3.4357,3.4326,3.433,3.4334,0,0,0,0,0,0,0,0,0,0,0,0,0,0,0,0,0,0,0,0,0,0,0,0,0,0,0,0,0,0,0,0,0,0,0,0,0,0,0,0,0,0,0,0,0,0,0,0,0,0,0,0,0,0,0,0,0,0,0,0,0,0,0,0,0,0,0,0,0]}],[{"header":{"parameterUnit":"kt","parameterCategory":2,"dx":1,"dy":1,"la1":30.253999710083008,"la2":30.299108505249023,"lo1":-89.0895004272461,"lo2":-89.04439544677734,"nx":28,"ny":28,"refTime":"2022-10-20T21:00:00:Z","depth":0,"parameterNumber":2,"parameterNumberName":"V-component_of_WINDS"},"data":[-2.0887,-2.0996,-2.1073,-2.1235,-2.1332,-2.1457,-2.1527,-2.1626,-2.1725,-2.1886,-2.1993,-2.2084,-2.2217,-2.2366,-2.2487,-2.2527,-2.2573,-2.2555,-2.2604,-2.2609,-2.2616,-2.2621,-2.26,-2.2564,-2.2564,-2.2588,-2.2588,-2.2589,-2.0886,-2.0982,-2.109,-2.1246,-2.134,-2.1404,-2.1535,-2.161,-2.1721,-2.1844,-2.1953,-2.2102,-2.223,-2.2372,-2.251,-2.2567,-2.2606,-2.2599,-2.2596,-2.2617,-2.2625,-2.2601,-2.2565,-2.2565,-2.2565,-2.2565,-2.2565,-2.2565,-2.0906,-2.0968,-2.1108,-2.1226,-2.1326,-2.1431,-2.1505,-2.1615,-2.1723,-2.1874,-2.1947,-2.2075,-2.2215,-2.2421,-2.251,-2.2614,-2.2637,-2.2655,-2.266,-2.2662,-2.2654,-2.2611,-2.2642,-2.2642,-2.2642,-2.2643,-2.2643,0,-2.0945,-2.1005,-2.1113,-2.1244,-2.1335,-2.1445,-2.1559,-2.1608,-2.1765,-2.1848,-2.1975,-2.2062,-2.2236,-2.2367,-2.2514,-2.2605,-2.2682,-2.2698,-2.2711,-2.2677,-2.2628,-2.2656,-2.2667,-2.2697,-2.2697,-2.2698,-2.2698,-2.2699,-2.0971,-2.1034,-2.1218,-2.1283,-2.1365,-2.1469,-2.1548,-2.1681,-2.1759,-2.1922,-2.1972,-2.2104,-2.2216,-2.241,-2.2541,-2.2672,-2.2711,-2.2714,-2.2731,-2.2696,-2.2713,-2.2708,-2.2716,-2.2707,-2.2706,-2.2705,-2.2704,0,-2.0979,-2.1105,-2.1228,-2.1405,-2.1451,-2.1511,-2.1664,-2.1733,-2.1832,-2.1942,-2.1976,-2.2133,-2.2257,-2.2388,-2.2557,-2.2622,-2.2729,-2.2763,-2.2682,-2.2696,-2.2713,-2.271,-2.2742,-2.2755,-2.2792,-2.2791,-2.2791,0,-2.1052,-2.1129,-2.1313,-2.1378,-2.147,-2.1602,-2.169,-2.1784,-2.1905,-2.1993,-2.21,-2.218,-2.2336,-2.2436,-2.2532,-2.2643,-2.2674,-2.2731,-2.2756,-2.2722,-2.2715,-2.2767,-2.2769,-2.2808,-2.2808,-2.2807,-2.2807,0,-2.1051,-2.124,-2.1346,-2.1409,-2.1606,-2.1653,-2.1737,-2.1874,-2.195,-2.2071,-2.2122,-2.2253,-2.2325,-2.2426,-2.2548,-2.2555,-2.2686,-2.2721,-2.2745,-2.2741,-2.2766,-2.2763,-2.2759,-2.2807,-2.2807,-2.2807,-2.2807,0,-2.1129,-2.1244,-2.1378,-2.1544,-2.1589,-2.1659,-2.1796,-2.1886,-2.2022,-2.2087,-2.2183,-2.227,-2.2376,-2.2402,-2.2551,-2.2525,-2.2591,-2.2655,-2.2659,-2.2677,-2.2702,-2.2683,-2.2665,-2.2669,-2.2694,-2.2693,-2.2692,0,-2.1094,-2.1262,-2.1375,-2.15,-2.1596,-2.1709,-2.179,-2.1907,-2.2,-2.2097,-2.2201,-2.231,-2.2357,-2.2409,-2.2466,-2.2578,-2.2611,-2.2577,-2.2719,-2.2723,-2.268,-2.2664,-2.2629,-2.2654,-2.2682,-2.2683,-2.2684,0,-2.1082,-2.1318,-2.1332,-2.141,-2.1584,-2.1665,-2.1757,-2.1894,-2.1952,-2.2071,-2.2154,-2.2311,-2.2353,-2.2439,-2.2524,-2.2575,-2.2593,-2.2614,-2.262,-2.2606,-2.2687,-2.2653,-2.2657,-2.2639,-2.264,-2.2641,-2.2675,0,-2.1173,-2.1273,-2.1316,-2.1483,-2.1566,-2.1651,-2.1788,-2.1857,-2.193,-2.2025,-2.2148,-2.2279,-2.242,-2.2458,-2.253,-2.2605,-2.2614,-2.2657,-2.2692,-2.268,-2.2695,-2.2701,-2.2659,-2.2661,-2.2662,-2.2663,0,0,-2.1109,-2.1254,-2.1375,-2.1468,-2.1546,-2.1662,-2.174,-2.183,-2.2007,-2.2059,-2.2079,-2.2318,-2.2423,-2.2558,-2.2565,-2.2622,-2.2649,-2.2647,-2.2684,-2.2686,-2.2688,-2.2701,-2.2705,-2.2666,-2.2667,-2.2667,-2.2668,0,-2.117,-2.127,-2.1345,-2.1443,-2.1591,-2.1688,-2.1706,-2.1874,-2.1939,-2.2059,-2.2154,-2.2245,-2.2431,-2.2531,-2.2606,-2.2634,-2.2702,-2.2667,-2.2636,-2.2695,-2.2695,-2.2695,-2.2707,-2.2709,-2.2672,-2.2671,-2.2671,0,-2.1184,-2.1306,-2.1356,-2.1535,-2.1633,-2.1729,-2.1799,-2.1896,-2.1969,-2.2093,-2.221,-2.2301,-2.2445,-2.2554,-2.2608,-2.2629,-2.2742,-2.273,-2.2724,-2.2734,-2.2798,-2.2797,-2.2797,-2.2804,-2.2804,-2.2804,0,0,-2.1218,-2.1311,-2.1484,-2.1558,-2.1614,-2.1759,-2.1823,-2.1902,-2.2027,-2.2077,-2.2195,-2.2316,-2.2427,-2.2496,-2.2607,-2.2707,-2.2748,-2.2741,-2.2735,-2.2729,-2.2735,-2.2797,-2.2797,-2.2804,-2.2804,-2.2804,0,0,-2.1235,-2.1438,-2.1488,-2.1591,-2.1706,-2.1883,-2.1925,-2.1991,-2.2104,-2.211,-2.2249,-2.2288,-2.2392,-2.2478,-2.2456,-2.2622,-2.2654,-2.2662,-2.2562,-2.2556,-2.255,-2.2528,-2.2547,0,0,0,0,0,-2.1367,-2.1413,-2.1456,-2.1494,-2.1721,-2.1858,-2.1889,-2.2004,-2.2024,-2.2054,-2.2164,-2.2232,-2.2495,-2.2479,-2.2516,-2.2539,-2.2798,-2.2799,-2.28,-2.2696,-2.2688,-2.2681,0,0,0,0,0,0,-2.1383,-2.1428,-2.1455,-2.1631,-2.1684,-2.1858,-2.1917,-2.195,-2.2024,-2.2035,-2.2208,-2.2237,-2.2339,-2.2469,-2.25,-2.2519,-2.2536,-2.2798,-2.2799,-2.28,-2.2693,-2.2687,-2.2681,0,0,0,0,0,-2.1396,-2.1433,-2.1766,-2.1632,-2.1677,-2.1841,-2.1917,-2.1945,-2.2003,-2.2173,-2.2204,-2.2084,-2.2337,-2.2371,-2.2488,-2.2502,-2.2516,-2.2527,-2.2799,-2.28,-2.28,-2.269,0,0,0,0,0,0,-2.1406,-2.146,-2.1778,-2.1796,-2.1622,-2.1834,-2.1871,-2.1939,-2.214,-2.2171,-2.2055,-2.2061,-2.2335,-2.2362,-2.2388,-2.2489,-2.2499,-2.251,-2.2517,-2.2799,-2.28,-2.28,0,0,0,0,0,0,-2.1441,-2.1474,-2.1787,-2.1769,-2.1787,-2.1826,-2.1859,-2.1975,-2.2141,-2.2011,-2.2022,-2.2055,-2.2298,-2.2356,-2.2377,-2.2553,-2.2486,-2.2497,-2.2504,-2.2509,-2.28,-2.28,0,0,0,0,0,0,-2.1457,-2.1486,-2.1765,-2.1778,-2.1794,-2.2007,-2.1931,-2.2158,-2.2122,-2.2,-2.2123,-2.2123,-2.229,-2.2313,-2.2368,-2.2536,-2.2549,-2.2486,-2.2494,-2.2499,-2.2503,0,0,0,0,0,0,0,-2.1471,-2.125,-2.1669,-2.1786,-2.18,-2.1965,-2.197,-2.1975,-2.2122,-2.2123,-2.2123,-2.2123,-2.2424,-2.2436,-2.2448,-2.2521,0,0,-2.2485,-2.2491,0,0,0,0,0,0,0,0,-2.124,-2.1247,-2.167,-2.1674,-2.1677,-2.1966,-2.197,-2.1974,-2.2122,-2.2123,-2.2123,-2.2123,-2.2428,-2.2437,-2.2447,0,0,0,0,0,0,0,0,0,0,0,0,0,0,0,-2.167,-2.1673,0,-2.1966,-2.197,-2.1973,-2.2122,-2.2123,-2.2123,-2.2123,-2.243,-2.2438,-2.2446,0,0,0,0,0,0,0,0,0,0,0,0,0,0,0,0,0,0,0,0,0,0,0,0,0,0,0,0,0,0,0,0,0,0,0,0,0,0,0,0,0,0,0,0,0,0,0,0,0,0,0,0,0,0,0,0,0,0,0,0,0,0,0,0,0,0,0,0,0]}]]]